Location: Unspecified
(0.0000°N, 0.0000°E)
Time: 10:23:50
(UTC+00:00)

Vanguard 2 - Pass Details

Date: 13 December 2017
Orbit: 553 x 2939 km, 32.9° (Epoch: 15 July)

Event Time Altitude Azimuth Distance (km) Brightness Sun altitude
Rises 12:31:41 0° 245° (WSW) 6,501 12.5 65.1°
Reaches altitude 10° 12:36:35 10° 249° (WSW) 5,232 12.2 64.6°
Maximum altitude 12:50:19 51° 320° (NW) 2,186 10.5 63.1°
Drops below altitude 10° 12:58:46 10° 35° (NE) 3,299 10.6 62.0°
Sets 13:01:12 0° 41° (NE) 4,004 10.9 61.7°
